[[{"header":{"parameterUnit":"m.s-1","parameterCategory":1,"la1":30.2991,"la2":30.254,"lo1":-89.0895,"lo2":-89.0444,"dy":0.0017,"dx":0.0017,"nx":28,"ny":28,"refTime":"2024-09-01T03:00:00:Z","depth":0,"parameterNumber":2,"parameterNumberName":"U-component_of_WINDS"},"data":[0,0,0,0,0,0,0,0,0,0,0,0,0,0,0,0,0,0,0,0,0,0,0,0,0,0,0,0,0,0,0,0,0,0,0,0,0,0,0,0,0,0,0,0,0,0,0,0,0,0,0,0,0,0,0,0,0,0,-1.3571,-1.357,0,-1.346,-1.3459,-1.3458,-1.3427,-1.3428,-1.3429,-1.3429,-1.3316,-1.3312,-1.3309,0,0,0,0,0,0,0,0,0,0,0,0,0,-1.3758,-1.3754,-1.3571,-1.357,-1.3568,-1.3461,-1.3459,-1.3457,-1.3427,-1.3428,-1.3429,-1.343,-1.3317,-1.3313,-1.3309,0,0,0,0,0,0,0,0,0,0,0,0,0,-1.3665,-1.3753,-1.3571,-1.354,-1.3536,-1.3461,-1.3459,-1.3457,-1.3427,-1.3428,-1.3429,-1.343,-1.3319,-1.3313,-1.3308,-1.3255,0,0,-1.3291,-1.3289,0,0,0,0,0,0,0,0,-1.367,-1.3658,-1.3546,-1.3542,-1.3538,-1.3459,-1.3483,-1.3389,-1.3427,-1.3469,-1.3429,-1.343,-1.3363,-1.3354,-1.3331,-1.325,-1.3245,-1.3291,-1.3288,-1.3285,-1.3284,0,0,0,0,0,0,0,-1.3677,-1.3663,-1.3527,-1.3545,-1.354,-1.3532,-1.352,-1.3465,-1.3412,-1.3465,-1.3463,-1.345,-1.3361,-1.3336,-1.3328,-1.3243,-1.3291,-1.3286,-1.3283,-1.3281,-1.3116,-1.3115,0,0,0,0,0,0,-1.3688,-1.3668,-1.3531,-1.3524,-1.3608,-1.3528,-1.3515,-1.3483,-1.3412,-1.3402,-1.3449,-1.3449,-1.3345,-1.3334,-1.3324,-1.3259,-1.3285,-1.328,-1.3277,-1.3117,-1.3116,-1.3115,0,0,0,0,0,0,-1.3692,-1.3676,-1.3535,-1.3595,-1.3577,-1.3524,-1.3489,-1.348,-1.3456,-1.34,-1.3391,-1.3434,-1.3345,-1.3331,-1.3273,-1.3255,-1.3278,-1.3273,-1.3119,-1.3117,-1.3115,-1.3128,0,0,0,0,0,0,-1.3698,-1.3678,-1.3657,-1.3595,-1.3574,-1.3486,-1.3488,-1.3478,-1.3447,-1.3445,-1.3383,-1.3374,-1.3345,-1.3281,-1.3268,-1.3247,-1.3269,-1.312,-1.3118,-1.3116,-1.3129,-1.3127,-1.3125,0,0,0,0,0,-1.3705,-1.3664,-1.3656,-1.364,-1.3546,-1.3485,-1.3473,-1.344,-1.3445,-1.3424,-1.3389,-1.3376,-1.3259,-1.3276,-1.326,-1.3238,-1.3121,-1.3119,-1.3116,-1.313,-1.3127,-1.3125,0,0,0,0,0,0,-1.3725,-1.3656,-1.3646,-1.3584,-1.3541,-1.348,-1.3452,-1.3438,-1.3392,-1.3393,-1.3354,-1.3341,-1.3285,-1.3256,-1.3276,-1.3184,-1.319,-1.3184,-1.3206,-1.3203,-1.3201,-1.321,-1.3264,0,0,0,0,0,-1.3722,-1.3678,-1.362,-1.3571,-1.355,-1.3505,-1.3477,-1.3456,-1.3409,-1.3391,-1.3351,-1.3306,-1.326,-1.323,-1.3183,-1.3125,-1.3112,-1.3102,-1.31,-1.3099,-1.3095,-1.3063,-1.3059,-1.3107,-1.3107,-1.3107,0,0,-1.3716,-1.3673,-1.3647,-1.3574,-1.3538,-1.3494,-1.349,-1.3442,-1.3409,-1.3383,-1.3326,-1.3296,-1.3244,-1.3186,-1.3158,-1.3159,-1.3079,-1.3096,-1.3095,-1.3091,-1.306,-1.3056,-1.3052,-1.3105,-1.3105,-1.3105,0,0,-1.3683,-1.3645,-1.3601,-1.3565,-1.3511,-1.3482,-1.3471,-1.3413,-1.3392,-1.3334,-1.3314,-1.3275,-1.3195,-1.3159,-1.313,-1.3086,-1.3073,-1.3072,-1.3062,-1.3032,-1.3028,-1.3025,-1.301,-1.3006,-1.3068,-1.3068,-1.3068,0,-1.3682,-1.3614,-1.358,-1.3534,-1.3504,-1.3479,-1.3435,-1.3402,-1.3335,-1.3315,-1.3318,-1.3218,-1.3181,-1.3115,-1.3105,-1.3082,-1.307,-1.3079,-1.3032,-1.3028,-1.3024,-1.301,-1.3004,-1.3068,-1.3068,-1.3068,-1.3068,0,-1.3616,-1.357,-1.3541,-1.3478,-1.3444,-1.3399,-1.336,-1.333,-1.3312,-1.3283,-1.3225,-1.3181,-1.3126,-1.3109,-1.309,-1.3041,-1.3043,-1.3039,-1.3044,-1.302,-1.3006,-1.3001,-1.3068,-1.3068,-1.3068,-1.3068,0,0,-1.3591,-1.3512,-1.3502,-1.3474,-1.3413,-1.3377,-1.3332,-1.3279,-1.3254,-1.321,-1.3172,-1.3106,-1.3102,-1.307,-1.3048,-1.3021,-1.2991,-1.302,-1.3019,-1.3018,-1.2936,-1.294,-1.2934,-1.2982,-1.2981,-1.298,-1.294,0,-1.3551,-1.3469,-1.3439,-1.3372,-1.333,-1.3307,-1.3268,-1.3227,-1.3199,-1.3159,-1.3128,-1.3083,-1.3081,-1.3061,-1.3034,-1.3001,-1.2974,-1.3003,-1.2948,-1.2946,-1.2962,-1.2926,-1.293,-1.2894,-1.2935,-1.2934,-1.2933,0,-1.3492,-1.3448,-1.3378,-1.3324,-1.3305,-1.3271,-1.3221,-1.3183,-1.3136,-1.3118,-1.3083,-1.3063,-1.3017,-1.3025,-1.296,-1.2981,-1.2956,-1.2937,-1.2935,-1.2928,-1.2938,-1.292,-1.2882,-1.2877,-1.2924,-1.2924,-1.2925,0,-1.3483,-1.3405,-1.3354,-1.333,-1.3266,-1.3243,-1.3215,-1.317,-1.3141,-1.3097,-1.3078,-1.303,-1.3003,-1.2967,-1.2935,-1.2943,-1.2874,-1.2879,-1.2859,-1.2859,-1.2845,-1.2846,-1.2803,-1.2828,-1.2829,-1.2829,-1.2829,0,-1.3441,-1.3399,-1.3349,-1.3317,-1.327,-1.3236,-1.3191,-1.3162,-1.3122,-1.3085,-1.3062,-1.3028,-1.2987,-1.2948,-1.2923,-1.2875,-1.2863,-1.2848,-1.2842,-1.285,-1.2852,-1.2834,-1.2836,-1.2827,-1.2827,-1.2828,-1.2828,0,-1.3422,-1.3386,-1.3329,-1.3274,-1.3259,-1.3227,-1.318,-1.3149,-1.312,-1.3074,-1.3061,-1.3017,-1.297,-1.2935,-1.2873,-1.2857,-1.2806,-1.2799,-1.2822,-1.2819,-1.28,-1.2803,-1.2744,-1.2736,-1.2766,-1.2766,-1.2766,0,-1.3398,-1.3365,-1.3307,-1.3281,-1.3254,-1.3211,-1.3182,-1.3148,-1.3118,-1.3064,-1.304,-1.2992,-1.2951,-1.2878,-1.284,-1.2794,-1.2786,-1.2769,-1.2779,-1.279,-1.2788,-1.279,-1.2787,-1.2768,-1.2768,-1.2768,-1.2768,0,-1.336,-1.3344,-1.3302,-1.3255,-1.3221,-1.3181,-1.3142,-1.3122,-1.3081,-1.3049,-1.3001,-1.297,-1.2908,-1.2861,-1.2812,-1.2784,-1.2769,-1.2765,-1.2758,-1.2766,-1.2781,-1.2774,-1.2819,-1.2766,-1.2766,-1.2766,-1.2767,-1.2767,-1.3338,-1.3309,-1.3264,-1.3218,-1.3185,-1.315,-1.3118,-1.3087,-1.3046,-1.2994,-1.2976,-1.2927,-1.2884,-1.2816,-1.2788,-1.275,-1.275,-1.2739,-1.2737,-1.2735,-1.2736,-1.2787,-1.274,-1.274,-1.274,-1.274,-1.274,0,-1.3299,-1.327,-1.3228,-1.3175,-1.314,-1.3129,-1.3086,-1.3057,-1.3014,-1.2975,-1.2936,-1.2882,-1.2837,-1.2797,-1.275,-1.2727,-1.272,-1.2716,-1.2718,-1.2712,-1.2738,-1.2749,-1.2724,-1.2724,-1.2724,-1.2724,-1.2724,-1.2724,-1.3275,-1.3226,-1.3205,-1.314,-1.311,-1.3062,-1.3039,-1.3006,-1.2975,-1.2916,-1.2878,-1.2852,-1.2813,-1.2764,-1.2723,-1.2712,-1.2696,-1.2695,-1.2683,-1.2708,-1.271,-1.2712,-1.2723,-1.2692,-1.2691,-1.266,-1.266,-1.266]},{"header":{"parameterUnit":"m.s-1","parameterCategory":1,"la1":30.2991,"la2":30.254,"lo1":-89.0895,"lo2":-89.0444,"dy":0.0017,"dx":0.0017,"nx":28,"ny":28,"refTime":"2024-09-01T03:00:00:Z","depth":0,"parameterNumber":3,"parameterNumberName":"V-component_of_WINDS"},"data":[0,0,0,0,0,0,0,0,0,0,0,0,0,0,0,0,0,0,0,0,0,0,0,0,0,0,0,0,0,0,0,0,0,0,0,0,0,0,0,0,0,0,0,0,0,0,0,0,0,0,0,0,0,0,0,0,0,0,0.307,0.307,0,0.3061,0.3061,0.3061,0.3056,0.3056,0.3056,0.3056,0.3046,0.3045,0.3045,0,0,0,0,0,0,0,0,0,0,0,0,0,0.3082,0.3082,0.307,0.307,0.307,0.3061,0.3061,0.3061,0.3056,0.3056,0.3056,0.3056,0.3046,0.3045,0.3045,0,0,0,0,0,0,0,0,0,0,0,0,0,0.3076,0.3082,0.307,0.3066,0.3066,0.3061,0.3061,0.3061,0.3056,0.3056,0.3056,0.3056,0.3046,0.3045,0.3045,0.3043,0,0,0.3044,0.3044,0,0,0,0,0,0,0,0,0.3076,0.3075,0.3067,0.3067,0.3066,0.3059,0.3061,0.3055,0.3056,0.306,0.3056,0.3056,0.305,0.3049,0.3048,0.3043,0.3042,0.3044,0.3044,0.3043,0.3043,0,0,0,0,0,0,0,0.3076,0.3075,0.3067,0.3067,0.3066,0.3065,0.3064,0.306,0.3055,0.3059,0.3059,0.3058,0.305,0.3048,0.3047,0.3042,0.3044,0.3044,0.3043,0.3043,0.3033,0.3033,0,0,0,0,0,0,0.3078,0.3076,0.3067,0.3066,0.3071,0.3065,0.3063,0.3062,0.3055,0.3054,0.3058,0.3058,0.3049,0.3048,0.3047,0.3043,0.3043,0.3043,0.3043,0.3033,0.3033,0.3033,0,0,0,0,0,0,0.3078,0.3077,0.3067,0.3071,0.307,0.3064,0.3062,0.3061,0.306,0.3054,0.3053,0.3057,0.3049,0.3048,0.3044,0.3043,0.3043,0.3043,0.3033,0.3033,0.3033,0.3036,0,0,0,0,0,0,0.3078,0.3077,0.3077,0.3071,0.3069,0.3065,0.3062,0.3061,0.3059,0.3059,0.3053,0.3052,0.3049,0.3044,0.3043,0.3042,0.3042,0.3033,0.3033,0.3033,0.3036,0.3036,0.3036,0,0,0,0,0,0.3079,0.3078,0.3077,0.3076,0.3069,0.3065,0.3064,0.306,0.3059,0.3058,0.3054,0.3052,0.3043,0.3044,0.3043,0.3042,0.3033,0.3033,0.3033,0.3036,0.3036,0.3036,0,0,0,0,0,0,0.3084,0.3077,0.3076,0.3073,0.307,0.3064,0.3063,0.306,0.3057,0.3056,0.3052,0.305,0.3047,0.3044,0.3045,0.3038,0.3038,0.3037,0.3041,0.3041,0.3041,0.3041,0.3042,0,0,0,0,0,0.3085,0.3082,0.3077,0.3075,0.3073,0.3068,0.3066,0.3063,0.3059,0.3058,0.3054,0.3049,0.3045,0.3043,0.3039,0.3036,0.3034,0.3034,0.3034,0.3034,0.3034,0.303,0.303,0.3033,0.3033,0.3033,0,0,0.3087,0.3083,0.3082,0.3076,0.3073,0.3069,0.3067,0.3064,0.3061,0.3057,0.3053,0.305,0.3045,0.304,0.3039,0.3038,0.3033,0.3034,0.3034,0.3034,0.303,0.303,0.303,0.3032,0.3032,0.3033,0,0,0.3089,0.3086,0.3083,0.308,0.3075,0.3071,0.3071,0.3065,0.3062,0.3058,0.3055,0.3051,0.3045,0.3041,0.3038,0.3036,0.3034,0.3035,0.3036,0.3032,0.3032,0.3032,0.303,0.303,0.3035,0.3035,0.3035,0,0.3092,0.3087,0.3083,0.3079,0.3076,0.3072,0.3069,0.3066,0.306,0.3058,0.3057,0.3048,0.3045,0.3039,0.3038,0.3037,0.3035,0.3036,0.3033,0.3032,0.3032,0.303,0.303,0.3035,0.3035,0.3035,0.3035,0,0.309,0.3087,0.3085,0.3079,0.3076,0.3073,0.3068,0.3065,0.3062,0.3059,0.3054,0.3049,0.3043,0.3042,0.3039,0.3035,0.3035,0.3034,0.3033,0.3032,0.303,0.303,0.3035,0.3035,0.3035,0.3035,0,0,0.3096,0.3086,0.3086,0.3082,0.3075,0.3073,0.3069,0.3063,0.306,0.3056,0.3052,0.3046,0.3044,0.3041,0.3038,0.3035,0.3033,0.3034,0.3034,0.3033,0.3027,0.3027,0.3027,0.3031,0.3031,0.3031,0.3027,0,0.3096,0.3089,0.3084,0.3079,0.3075,0.3071,0.3067,0.3062,0.3058,0.3054,0.305,0.3045,0.3044,0.3041,0.3039,0.3034,0.3031,0.3034,0.3026,0.3026,0.3027,0.3026,0.3027,0.3023,0.3026,0.3026,0.3026,0,0.3095,0.309,0.3085,0.3077,0.3075,0.3072,0.3066,0.3062,0.3056,0.3053,0.3049,0.3045,0.304,0.304,0.3032,0.3034,0.3031,0.3028,0.3027,0.3026,0.3026,0.3024,0.3022,0.3022,0.3025,0.3025,0.3025,0,0.3099,0.3091,0.3086,0.3083,0.3074,0.3072,0.3068,0.3062,0.3059,0.3053,0.3051,0.3045,0.3041,0.3036,0.303,0.3031,0.3023,0.3022,0.302,0.302,0.3018,0.3018,0.3015,0.3017,0.3017,0.3017,0.3017,0,0.3099,0.3095,0.3087,0.3084,0.308,0.3074,0.307,0.3065,0.306,0.3055,0.3051,0.3047,0.304,0.3035,0.303,0.3024,0.3022,0.3019,0.3018,0.3019,0.302,0.3017,0.3017,0.3017,0.3017,0.3017,0.3017,0,0.3102,0.3096,0.3091,0.3083,0.308,0.3077,0.307,0.3066,0.3062,0.3056,0.3055,0.3047,0.3041,0.3035,0.3026,0.3023,0.3016,0.3015,0.3018,0.3017,0.3015,0.3015,0.3009,0.3008,0.3011,0.3011,0.3011,0,0.3102,0.3099,0.3091,0.3087,0.3083,0.3078,0.3074,0.3068,0.3064,0.3056,0.3053,0.3046,0.304,0.303,0.3023,0.3016,0.3015,0.3013,0.3014,0.3014,0.3014,0.3014,0.3013,0.3013,0.3013,0.3013,0.3013,0,0.3103,0.31,0.3095,0.3088,0.3083,0.3078,0.3072,0.307,0.3062,0.3058,0.3051,0.3046,0.3037,0.3029,0.3021,0.3017,0.3013,0.3013,0.3012,0.3013,0.3015,0.3013,0.3018,0.3013,0.3013,0.3013,0.3013,0.3013,0.3104,0.3101,0.3094,0.3088,0.3083,0.3077,0.3073,0.3067,0.3062,0.3053,0.305,0.3043,0.3035,0.3024,0.3019,0.3013,0.3012,0.3011,0.301,0.301,0.301,0.3016,0.3011,0.3011,0.3011,0.3011,0.3011,0,0.3104,0.3099,0.3094,0.3085,0.308,0.3077,0.307,0.3066,0.3059,0.3053,0.3047,0.3038,0.3031,0.3023,0.3015,0.3011,0.3009,0.3009,0.3009,0.3008,0.3011,0.3013,0.3011,0.3011,0.3011,0.3011,0.3011,0.3011,0.3104,0.3097,0.3093,0.3084,0.3079,0.3072,0.3068,0.3062,0.3057,0.3047,0.3041,0.3036,0.3028,0.302,0.3012,0.301,0.3007,0.3007,0.3005,0.3008,0.3008,0.3008,0.3009,0.3007,0.3007,0.3002,0.3002,0.3002]}]]